TimePDT,TemperatureF,Dew PointF,Humidity,Sea Level PressureIn,VisibilityMPH,Wind Direction,Wind SpeedMPH,Gust SpeedMPH,PrecipitationIn,Events,Conditions,WindDirDegrees,DateUTC
12:58 AM,53.8,51.8,93,29.86,10.0,SE,4.6,-,N/A,,Overcast,130,2013-09-28 07:58:00
1:07 AM,53.6,51.8,94,29.83,9.0,SE,5.8,-,N/A,,Overcast,140,2013-09-28 08:07:00
1:22 AM,53.6,51.8,94,29.83,9.0,SE,6.9,-,N/A,,Overcast,140,2013-09-28 08:22:00
1:52 AM,53.6,51.8,94,29.83,9.0,South,2.3,-,N/A,,Overcast,170,2013-09-28 08:52:00
1:58 AM,53.1,52.5,98,29.84,7.0,South,2.3,-,0.04,,Overcast,170,2013-09-28 08:58:00
2:08 AM,53.6,53.6,100,29.83,5.0,SSE,4.6,-,N/A,,Overcast,160,2013-09-28 09:08:00
2:13 AM,53.6,53.6,100,29.82,5.0,SE,4.6,-,N/A,,Overcast,140,2013-09-28 09:13:00
2:33 AM,53.6,53.6,100,29.81,10.0,SE,4.6,-,N/A,,Overcast,140,2013-09-28 09:33:00
2:48 AM,53.6,53.6,100,29.81,8.0,SE,4.6,-,N/A,,Overcast,130,2013-09-28 09:48:00
2:58 AM,53.2,53.1,99,29.81,9.0,SE,4.6,-,0.08,,Overcast,130,2013-09-28 09:58:00
3:03 AM,53.6,53.6,100,29.79,10.0,SE,4.6,-,N/A,,Overcast,140,2013-09-28 10:03:00
3:13 AM,53.6,53.6,100,29.78,9.0,ESE,3.5,-,N/A,,Overcast,120,2013-09-28 10:13:00
3:23 AM,53.6,53.6,100,29.79,8.0,SSW,2.3,-,N/A,,Overcast,200,2013-09-28 10:23:00
3:43 AM,53.6,53.6,100,29.76,8.0,ESE,5.8,-,N/A,,Overcast,110,2013-09-28 10:43:00
3:48 AM,53.6,53.6,100,29.75,10.0,ESE,5.8,-,N/A,,Overcast,120,2013-09-28 10:48:00
3:58 AM,53.6,53.2,99,29.76,10.0,ESE,4.6,-,0.04,,Mostly Cloudy,120,2013-09-28 10:58:00
4:08 AM,53.6,53.6,100,29.74,10.0,ESE,4.6,-,N/A,,Overcast,110,2013-09-28 11:08:00
4:21 AM,53.6,53.6,100,29.73,10.0,Variable,6.9,-,N/A,,Overcast,0,2013-09-28 11:21:00
4:31 AM,53.6,53.6,100,29.71,8.0,East,5.8,-,N/A,,Overcast,90,2013-09-28 11:31:00
4:41 AM,53.6,53.6,100,29.71,10.0,East,5.8,-,N/A,,Overcast,90,2013-09-28 11:41:00
4:51 AM,53.6,53.6,100,29.70,9.0,SE,2.3,-,N/A,,Overcast,140,2013-09-28 11:51:00
4:56 AM,53.6,53.6,100,29.70,8.0,SE,3.5,-,N/A,,Overcast,130,2013-09-28 11:56:00
4:58 AM,54.0,53.6,99,29.71,8.0,SE,4.6,-,0.05,,Overcast,130,2013-09-28 11:58:00
5:23 AM,53.6,53.6,100,29.68,7.0,North,-9999.0,-,N/A,,Overcast,0,2013-09-28 12:23:00
5:33 AM,53.6,53.6,100,29.68,10.0,ESE,1.2,-,N/A,,Overcast,120,2013-09-28 12:33:00
5:48 AM,53.6,53.6,100,29.66,9.0,East,5.8,-,N/A,,Overcast,100,2013-09-28 12:48:00
5:58 AM,53.8,53.4,99,29.66,7.0,ESE,6.9,-,0.08,,Overcast,120,2013-09-28 12:58:00
6:23 AM,53.6,53.6,100,29.63,9.0,SE,12.7,-,N/A,,Overcast,140,2013-09-28 13:23:00
6:38 AM,53.6,53.6,100,29.63,9.0,SE,12.7,-,N/A,,Overcast,140,2013-09-28 13:38:00
6:48 AM,55.4,53.6,94,29.62,10.0,SE,11.5,-,N/A,,Overcast,140,2013-09-28 13:48:00
6:58 AM,54.9,54.7,99,29.63,10.0,SSE,8.1,-,0.10,,Overcast,150,2013-09-28 13:58:00
7:43 AM,55.4,55.4,100,29.59,9.0,SE,8.1,-,N/A,,Overcast,130,2013-09-28 14:43:00
7:53 AM,55.4,55.4,100,29.59,8.0,SE,5.8,-,N/A,,Overcast,130,2013-09-28 14:53:00
7:58 AM,55.6,55.4,99,29.59,7.0,ESE,8.1,-,0.04,,Overcast,120,2013-09-28 14:58:00
8:10 AM,55.4,55.4,100,29.58,3.0,SE,9.2,-,N/A,,Overcast,130,2013-09-28 15:10:00
8:15 AM,55.4,55.4,100,29.57,2.5,SE,9.2,-,N/A,Rain,Light Rain Showers,130,2013-09-28 15:15:00
8:58 AM,56.5,56.1,99,29.57,4.0,SE,10.4,-,0.22,,Overcast,140,2013-09-28 15:58:00
9:38 AM,59.0,59.0,100,29.55,10.0,South,12.7,-,N/A,,Overcast,170,2013-09-28 16:38:00
9:43 AM,59.0,59.0,100,29.56,8.0,South,10.4,-,N/A,,Overcast,170,2013-09-28 16:43:00
9:48 AM,59.0,59.0,100,29.56,6.0,South,8.1,-,N/A,,Overcast,190,2013-09-28 16:48:00
9:53 AM,59.0,59.0,100,29.56,4.0,SW,10.4,-,N/A,,Overcast,230,2013-09-28 16:53:00
9:58 AM,58.6,58.3,99,29.57,3.0,SSW,8.1,-,0.14,Rain,Light Rain Showers,200,2013-09-28 16:58:00
10:04 AM,59.0,57.2,94,29.56,2.5,SSW,8.1,-,N/A,Rain,Light Rain Showers,210,2013-09-28 17:04:00
10:11 AM,59.0,57.2,94,29.56,3.0,SW,8.1,-,N/A,Rain,Light Rain Showers,220,2013-09-28 17:11:00
10:58 AM,59.0,59.0,100,29.54,3.0,WSW,9.2,-,0.16,Rain,Light Rain Showers,240,2013-09-28 17:58:00
11:04 AM,59.0,59.0,100,29.54,2.0,WSW,9.2,-,N/A,Rain,Light Rain Showers,240,2013-09-28 18:04:00
11:19 AM,59.0,59.0,100,29.52,3.0,SSE,6.9,-,N/A,Rain,Light Rain Showers,150,2013-09-28 18:19:00
11:29 AM,59.0,59.0,100,29.51,5.0,SE,11.5,17.3,N/A,Rain,Light Rain Showers,140,2013-09-28 18:29:00
11:45 AM,59.0,59.0,100,29.50,4.0,SSE,18.4,26.5,N/A,Rain,Light Rain Showers,150,2013-09-28 18:45:00
11:58 AM,59.5,58.8,97,29.53,5.0,SW,11.5,25.3,0.13,Rain,Light Rain Showers,220,2013-09-28 18:58:00
12:25 PM,59.0,59.0,100,29.52,5.0,South,15.0,-,N/A,Rain,Light Rain Showers,180,2013-09-28 19:25:00
12:47 PM,59.0,57.2,94,29.50,6.0,SSE,16.1,-,N/A,Rain,Light Rain Showers,150,2013-09-28 19:47:00
12:58 PM,59.9,57.7,93,29.50,6.0,SSE,16.1,-,0.06,Rain,Light Rain Showers,150,2013-09-28 19:58:00
12:59 PM,60.8,57.2,88,29.49,10.0,SSE,17.3,23.0,N/A,,Mostly Cloudy,150,2013-09-28 19:59:00
1:58 PM,62.2,56.1,80,29.45,10.0,SSE,20.7,26.5,N/A,,Overcast,150,2013-09-28 20:58:00
2:08 PM,62.6,57.2,82,29.43,10.0,SSE,24.2,35.7,N/A,,Overcast,150,2013-09-28 21:08:00
2:13 PM,60.8,57.2,88,29.43,10.0,SSE,20.7,35.7,N/A,,Overcast,150,2013-09-28 21:13:00
2:38 PM,60.8,57.2,88,29.42,10.0,SSE,21.9,34.5,N/A,,Overcast,150,2013-09-28 21:38:00
2:43 PM,60.8,57.2,88,29.42,10.0,SSE,16.1,34.5,N/A,,Overcast,150,2013-09-28 21:43:00
2:58 PM,60.8,57.9,90,29.42,9.0,SSE,18.4,32.2,0.05,,Overcast,160,2013-09-28 21:58:00
3:09 PM,60.8,57.2,88,29.41,9.0,SSE,19.6,28.8,N/A,,Overcast,150,2013-09-28 22:09:00
3:19 PM,60.8,59.0,94,29.39,8.0,SSE,20.7,29.9,N/A,,Overcast,150,2013-09-28 22:19:00
3:24 PM,60.8,59.0,94,29.39,10.0,SSE,23.0,28.8,N/A,,Overcast,150,2013-09-28 22:24:00
3:44 PM,60.8,59.0,94,29.38,10.0,SSE,18.4,25.3,N/A,,Mostly Cloudy,160,2013-09-28 22:44:00
3:56 PM,60.8,57.2,88,29.39,8.0,SSE,20.7,29.9,N/A,,Overcast,160,2013-09-28 22:56:00
3:58 PM,61.3,57.7,88,29.40,8.0,South,23.0,29.9,0.08,,Overcast,170,2013-09-28 22:58:00
4:13 PM,60.8,57.2,88,29.39,4.0,South,15.0,29.9,N/A,,Overcast,180,2013-09-28 23:13:00
4:23 PM,60.8,59.0,94,29.38,2.0,SSW,12.7,-,N/A,,Overcast,210,2013-09-28 23:23:00
4:28 PM,59.0,59.0,100,29.39,1.8,South,15.0,21.9,N/A,,Overcast,190,2013-09-28 23:28:00
4:38 PM,59.0,59.0,100,29.41,2.5,SSW,18.4,23.0,N/A,,Overcast,210,2013-09-28 23:38:00
4:43 PM,59.0,57.2,94,29.41,1.5,South,21.9,35.7,N/A,,Overcast,180,2013-09-28 23:43:00
4:48 PM,59.0,55.4,88,29.41,1.2,South,18.4,35.7,N/A,,Overcast,190,2013-09-28 23:48:00
4:53 PM,57.2,55.4,94,29.41,3.0,South,18.4,25.3,N/A,,Overcast,180,2013-09-28 23:53:00
4:58 PM,57.2,55.4,94,29.43,7.0,SSW,16.1,25.3,0.44,,Overcast,200,2013-09-28 23:58:00
5:01 PM,57.2,55.4,94,29.42,9.0,SW,17.3,26.5,N/A,,Overcast,230,2013-09-29 00:01:00
5:21 PM,55.4,51.8,88,29.43,6.0,SW,12.7,-,N/A,,Overcast,230,2013-09-29 00:21:00
5:58 PM,53.4,51.4,93,29.47,8.0,South,10.4,-,0.07,,Overcast,170,2013-09-29 00:58:00
6:58 PM,52.5,51.3,95,29.49,10.0,SSE,12.7,-,0.07,,Overcast,150,2013-09-29 01:58:00
7:58 PM,52.2,51.1,96,29.49,10.0,SSE,10.4,-,0.02,,Partly Cloudy,150,2013-09-29 02:58:00
8:43 PM,51.8,51.8,100,29.49,10.0,SSE,11.5,-,N/A,,Overcast,150,2013-09-29 03:43:00
8:48 PM,51.8,50.0,94,29.49,10.0,SSE,10.4,-,N/A,,Overcast,150,2013-09-29 03:48:00
8:58 PM,52.3,50.7,94,29.51,10.0,SE,9.2,-,N/A,,Overcast,140,2013-09-29 03:58:00
9:43 PM,51.8,50.0,94,29.51,10.0,SSE,5.8,-,N/A,,Overcast,160,2013-09-29 04:43:00
9:58 PM,52.2,50.2,93,29.51,10.0,SSE,8.1,-,N/A,,Overcast,150,2013-09-29 04:58:00
10:08 PM,51.8,50.0,94,29.50,10.0,South,5.8,-,N/A,,Overcast,170,2013-09-29 05:08:00
10:58 PM,51.8,48.7,89,29.52,10.0,SSE,6.9,-,N/A,,Mostly Cloudy,160,2013-09-29 05:58:00
11:58 PM,51.6,48.4,89,29.53,10.0,SE,10.4,-,N/A,,Mostly Cloudy,140,2013-09-29 06:58:00